User: anonymous   Login
Location: Düngen
(52.0952°N, 10.0219°E)
Time: 09:04:10
(UTC+00:00)
Language:

Cosmos 2315 Rocket - Orbit

View from above orbital plane
View from above orbital plane
View from above satellite
View from above satellite

Ground track
Ground track

The orbit is defined by the following mean orbital elements,

1 23604U          26127.85236828 +.00000000 +00000-0 +22331-4 0 00003
2 23604  82.9029 261.0326 0023860 196.7290 163.3082 13.74549102    09
Epoch (UTC): 07 May 2026 20:27:24
Eccentricity: 0.0023860
inclination: 82.9029°
perigee height: 966 km
apogee height: 1001 km
right ascension of ascending node: 261.0326°
argument of perigee: 196.7290°
revolutions per day: 13.74549102
mean anomaly at epoch: 163.3082°

The dashed part of the orbit path shows where the satellite is in the earth's shadow,  

DLR